7 * 24
多渠道服务支持
### STARLINK-37985(NORAD 100477)卫星摘要 STARLINK-37985是SpaceX星链(Starlink)低轨宽带星座的组网卫星,NORAD目录编号100477,属于SpaceX规模化部署的卫星互联网节点,由美国SpaceX公司研发制造,设计寿命约5年。该卫星由猎鹰9号火箭发射入轨,运行在约550公里高度的近地轨道,搭载星载相控阵通信载荷,主要承担全球高速低延迟宽带互联网接入服务,可为地面偏远区域、移动场景提供百兆级以上网络传输能力,支持流媒体、视频通话等应用,是SpaceX构建全球天基通信网络的在轨组成单元。该卫星入轨后按星座规划完成轨道升轨与定点,截至2026年9月处于正常在轨运行状态,纳入Starlink统一的空间交通协调管理,参与星间/星地链路协同,服务全球互联网覆盖需求。
美国
(US)
| 数据来源 | 国际轨道数据 |
| 星历时间: | 2026-09-05T06:02:55+0800 8小时前 查看轨道信息 |
| 半长轴: | 6674.335km |
| 偏心率: | 0.0004854 |
| 轨道倾角: | 53.159° |
| 近地点辐角 | 44.695° |
| 升交点赤经 | 319.627° |
| 平近点角 | 315.447° |
| 近地点: | 292.958km |
| 远地点: | 299.438km |
| 周期: | 90.442分钟 |
| 每日圈数: | 15.921749 |